datetime,flow
1910-03-12,2240.0
1910-03-13,1700.0
1910-03-14,1200.0
1910-03-15,875.0
1910-03-16,875.0
1910-03-17,875.0
1910-03-18,875.0
1910-03-19,928.0
1910-03-20,980.0
1910-03-21,980.0
1910-03-22,1090.0
1910-03-23,1200.0
1910-03-24,1200.0
1910-03-25,1150.0
1910-03-26,1200.0
1910-03-27,1150.0
1910-03-28,1090.0
1910-03-29,1090.0
1910-03-30,1040.0
1910-03-31,980.0
1910-04-01,980.0
1910-04-02,1040.0
1910-04-03,1090.0
1910-04-04,1090.0
1910-04-05,1090.0
1910-04-06,1090.0
1910-04-07,1090.0
1910-04-08,1150.0
1910-04-09,1200.0
1910-04-10,1260.0
1910-04-11,1440.0
1910-04-12,1700.0
1910-04-13,1820.0
1910-04-14,1960.0
1910-04-15,1960.0
1910-04-16,1890.0
1910-04-17,1820.0
1910-04-18,1960.0
1910-04-19,2100.0
1910-04-20,2240.0
1910-04-21,2470.0
1910-04-22,2550.0
1910-04-23,2630.0
1910-04-24,2700.0
1910-04-25,2940.0
1910-04-26,3270.0
1910-04-27,3700.0
1910-04-28,3970.0
1910-04-29,4540.0
1910-04-30,4440.0
1910-05-01,4060.0
1910-05-02,3700.0
1910-05-03,3190.0
1910-05-04,2860.0
1910-05-05,2860.0
1910-05-06,2860.0
1910-05-07,2700.0
1910-05-08,2860.0
1910-05-09,3270.0
1910-05-10,4260.0
1910-05-11,5240.0
1910-05-12,5440.0
1910-05-13,5240.0
1910-05-14,4740.0
1910-05-15,4440.0
1910-05-16,4060.0
1910-05-17,3440.0
1910-05-18,3190.0
1910-05-19,3020.0
1910-05-20,3110.0
1910-05-21,3020.0
1910-05-22,2860.0
1910-05-23,2700.0
1910-05-24,3190.0
1910-05-25,3790.0
1910-05-26,3520.0
1910-05-27,3270.0
1910-05-28,3700.0
1910-05-29,4160.0
1910-05-30,4840.0
1910-05-31,4840.0
1910-06-01,4840.0
1910-06-02,4540.0
1910-06-03,4260.0
1910-06-04,3610.0
1910-06-05,3270.0
1910-06-06,3020.0
1910-06-07,2700.0
1910-06-08,2400.0
1910-06-09,2170.0
1910-06-10,1960.0
1910-06-11,1960.0
1910-06-12,1820.0
1910-06-13,1820.0
1910-06-14,1700.0
1910-06-15,1570.0
1910-06-16,1510.0
1910-06-17,1440.0
1910-06-18,1440.0
1910-06-19,1320.0
1910-06-20,1320.0
1910-06-21,1200.0
1910-06-22,1090.0
1910-06-23,1040.0
1910-06-24,980.0
1910-06-25,980.0
1910-06-26,875.0
1910-06-27,875.0
1910-06-28,875.0
1910-06-29,1090.0
1910-06-30,1320.0
1910-07-01,1090.0
1910-07-02,980.0
1910-07-03,928.0
1910-07-04,875.0
1910-07-05,875.0
1910-07-06,875.0
1910-07-07,775.0
1910-07-08,685.0
1910-07-09,605.0
1910-07-10,535.0
1910-07-11,475.0
1910-07-12,475.0
1910-07-13,475.0
1910-07-14,425.0
1910-07-15,475.0
1910-07-16,535.0
1910-07-17,605.0
1910-07-18,605.0
1910-07-19,535.0
1910-07-20,535.0
1910-07-21,475.0
1910-07-22,475.0
1910-07-23,425.0
1910-07-24,425.0
1910-07-25,385.0
1910-07-26,405.0
1910-07-27,385.0
1910-07-28,450.0
1910-07-29,505.0
1910-07-30,475.0
1910-07-31,475.0
1910-08-01,685.0
1910-08-02,605.0
1910-08-03,605.0
1910-08-04,535.0
1910-08-05,475.0
1910-08-06,450.0
1910-08-07,385.0
1910-08-08,385.0
1910-08-09,368.0
1910-08-10,350.0
1910-08-11,332.0
1910-08-12,368.0
1910-08-13,405.0
1910-08-14,405.0
1910-08-15,405.0
1910-08-16,385.0
1910-08-17,350.0
1910-08-18,315.0
1910-08-19,315.0
1910-08-20,425.0
1910-08-21,350.0
1910-08-22,332.0
1910-08-23,332.0
1910-08-24,315.0
1910-08-25,285.0
1910-08-26,285.0
1910-08-27,285.0
1910-08-28,285.0
1910-08-29,300.0
1910-08-30,300.0
1910-08-31,300.0
1910-09-01,300.0
1910-09-02,300.0
1910-09-03,300.0
1910-09-04,315.0
1910-09-05,332.0
1910-09-06,332.0
1910-09-07,315.0
1910-09-08,315.0
1910-09-09,285.0
1910-09-10,285.0
1910-09-11,285.0
1910-09-12,285.0
1910-09-13,315.0
1910-09-14,315.0
1910-09-15,368.0
1910-09-16,450.0
1910-09-17,825.0
1910-09-18,825.0
1910-09-19,980.0
1910-09-20,875.0
1910-09-21,1150.0
1910-09-22,1040.0
1910-09-23,605.0
1910-09-24,535.0
1910-09-25,535.0
1910-09-26,535.0
1910-09-27,535.0
1910-09-28,505.0
1910-09-29,505.0
1910-09-30,475.0
1910-10-01,475.0
1910-10-02,475.0
1910-10-03,450.0
1910-10-04,475.0
1910-10-05,475.0
1910-10-06,450.0
1910-10-07,450.0
1910-10-08,425.0
1910-10-09,425.0
1910-10-10,425.0
1910-10-11,425.0
1910-10-12,425.0
1910-10-13,462.0
1910-10-14,462.0
1910-10-15,480.0
1910-10-16,935.0
1910-10-17,820.0
1910-10-18,722.0
1910-10-19,705.0
1910-10-20,705.0
1910-10-21,605.0
1910-10-22,605.0
1910-10-23,540.0
1910-10-24,575.0
1910-10-25,510.0
1910-10-26,520.0
1910-10-27,520.0
1910-10-28,490.0
1910-10-29,490.0
1910-10-30,500.0
1910-10-31,500.0
1910-11-01,470.0
1910-11-02,470.0
1910-11-03,480.0
1910-11-04,480.0
1910-11-05,480.0
1910-11-06,455.0
1910-11-07,455.0
1910-11-08,455.0
1910-11-09,455.0
1910-11-10,455.0
1910-11-11,455.0
1910-11-12,455.0
1910-11-13,455.0
1910-11-14,455.0
1910-11-15,455.0
1910-11-16,455.0
1910-11-17,455.0
1910-11-18,455.0
1910-11-19,455.0
1910-11-20,455.0
1910-11-21,455.0
1910-11-22,455.0
1910-11-23,455.0
1910-11-24,455.0
1910-11-25,455.0
1910-11-26,455.0
1910-11-27,455.0
1910-11-28,455.0
1910-11-29,455.0
1910-11-30,455.0
1910-12-01,
1910-12-02,
1910-12-03,
1910-12-04,
1910-12-05,
1910-12-06,
1910-12-07,
1910-12-08,
1910-12-09,
1910-12-10,
1910-12-11,
1910-12-12,
1910-12-13,
1910-12-14,
1910-12-15,
1910-12-16,
1910-12-17,
1910-12-18,
1910-12-19,
1910-12-20,
1910-12-21,
1910-12-22,
1910-12-23,
1910-12-24,
1910-12-25,
1910-12-26,
1910-12-27,
1910-12-28,
1910-12-29,
1910-12-30,
1910-12-31,
1911-01-01,
1911-01-02,
1911-01-03,
1911-01-04,
1911-01-05,
1911-01-06,
1911-01-07,
1911-01-08,
1911-01-09,
1911-01-10,
1911-01-11,
1911-01-12,
1911-01-13,
1911-01-14,
1911-01-15,
1911-01-16,
1911-01-17,
1911-01-18,
1911-01-19,
1911-01-20,
1911-01-21,
1911-01-22,
1911-01-23,
1911-01-24,
1911-01-25,
1911-01-26,
1911-01-27,
1911-01-28,
1911-01-29,
1911-01-30,
1911-01-31,
1911-02-01,
1911-02-02,
1911-02-03,
1911-02-04,
1911-02-05,
1911-02-06,
1911-02-07,
1911-02-08,
1911-02-09,
1911-02-10,
1911-02-11,
1911-02-12,
1911-02-13,
1911-02-14,
1911-02-15,
1911-02-16,
1911-02-17,
1911-02-18,
1911-02-19,
1911-02-20,
1911-02-21,
1911-02-22,
1911-02-23,
1911-02-24,
1911-02-25,
1911-02-26,
1911-02-27,
1911-02-28,
1911-03-01,
1911-03-02,
1911-03-03,
1911-03-04,
1911-03-05,
1911-03-06,
1911-03-07,
1911-03-08,
1911-03-09,
1911-03-10,
1911-03-11,
1911-03-12,
1911-03-13,
1911-03-14,
1911-03-15,
1911-03-16,
1911-03-17,
1911-03-18,
1911-03-19,
1911-03-20,
1911-03-21,
1911-03-22,
1911-03-23,
1911-03-24,
1911-03-25,
1911-03-26,
1911-03-27,
1911-03-28,
1911-03-29,
1911-03-30,
1911-03-31,
1911-04-01,
1911-04-02,
1911-04-03,
1911-04-04,
1911-04-05,
1911-04-06,
1911-04-07,
1911-04-08,
1911-04-09,
1911-04-10,
1911-04-11,
1911-04-12,
1911-04-13,
1911-04-14,
1911-04-15,
1911-04-16,
1911-04-17,
1911-04-18,
1911-04-19,
1911-04-20,
1911-04-21,
1911-04-22,
1911-04-23,
1911-04-24,
1911-04-25,
1911-04-26,
1911-04-27,
1911-04-28,
1911-04-29,
1911-04-30,
1911-05-01,
1911-05-02,
1911-05-03,
1911-05-04,
1911-05-05,
1911-05-06,
1911-05-07,
1911-05-08,
1911-05-09,
1911-05-10,
1911-05-11,
1911-05-12,
1911-05-13,
1911-05-14,
1911-05-15,
1911-05-16,
1911-05-17,
1911-05-18,
1911-05-19,
1911-05-20,
1911-05-21,
1911-05-22,
1911-05-23,
1911-05-24,
1911-05-25,
1911-05-26,
1911-05-27,
1911-05-28,
1911-05-29,
1911-05-30,
1911-05-31,
1911-06-01,
1911-06-02,
1911-06-03,
1911-06-04,
1911-06-05,
1911-06-06,
1911-06-07,
1911-06-08,
1911-06-09,
1911-06-10,
1911-06-11,
1911-06-12,
1911-06-13,
1911-06-14,
1911-06-15,
1911-06-16,
1911-06-17,
1911-06-18,
1911-06-19,
1911-06-20,
1911-06-21,
1911-06-22,
1911-06-23,
1911-06-24,
1911-06-25,
1911-06-26,
1911-06-27,
1911-06-28,
1911-06-29,
1911-06-30,
1911-07-01,
1911-07-02,
1911-07-03,
1911-07-04,
1911-07-05,
1911-07-06,
1911-07-07,
1911-07-08,
1911-07-09,
1911-07-10,
1911-07-11,
1911-07-12,
1911-07-13,
1911-07-14,
1911-07-15,
1911-07-16,
1911-07-17,
1911-07-18,
1911-07-19,
1911-07-20,
1911-07-21,
1911-07-22,
1911-07-23,
1911-07-24,
1911-07-25,555.0
1911-07-26,605.0
1911-07-27,555.0
1911-07-28,465.0
1911-07-29,422.0
1911-07-30,402.0
1911-07-31,402.0
1911-08-01,382.0
1911-08-02,328.0
1911-08-03,345.0
1911-08-04,294.0
1911-08-05,277.0
1911-08-06,247.0
1911-08-07,233.0
1911-08-08,233.0
1911-08-09,219.0
1911-08-10,219.0
1911-08-11,219.0
1911-08-12,262.0
1911-08-13,277.0
1911-08-14,294.0
1911-08-15,247.0
1911-08-16,233.0
1911-08-17,247.0
1911-08-18,233.0
1911-08-19,247.0
1911-08-20,219.0
1911-08-21,219.0
1911-08-22,219.0
1911-08-23,233.0
1911-08-24,247.0
1911-08-25,219.0
1911-08-26,219.0
1911-08-27,219.0
1911-08-28,219.0
1911-08-29,193.0
1911-08-30,193.0
1911-08-31,193.0
1911-09-01,206.0
1911-09-02,193.0
1911-09-03,193.0
1911-09-04,206.0
1911-09-05,193.0
1911-09-06,193.0
1911-09-07,193.0
1911-09-08,193.0
1911-09-09,206.0
1911-09-10,193.0
1911-09-11,193.0
1911-09-12,193.0
1911-09-13,233.0
1911-09-14,247.0
1911-09-15,233.0
1911-09-16,219.0
1911-09-17,219.0
1911-09-18,193.0
1911-09-19,219.0
1911-09-20,219.0
1911-09-21,219.0
1911-09-22,219.0
1911-09-23,219.0
1911-09-24,247.0
1911-09-25,262.0
1911-09-26,277.0
1911-09-27,310.0
1911-09-28,770.0
1911-09-29,488.0
1911-09-30,510.0
1911-10-01,605.0
1911-10-02,532.0
1911-10-03,510.0
1911-10-04,465.0
1911-10-05,488.0
1911-10-06,488.0
1911-10-07,465.0
1911-10-08,444.0
1911-10-09,444.0
1911-10-10,422.0
1911-10-11,444.0
1911-10-12,444.0
1911-10-13,422.0
1911-10-14,422.0
1911-10-15,422.0
1911-10-16,422.0
1911-10-17,402.0
1911-10-18,402.0
1911-10-19,382.0
1911-10-20,364.0
1911-10-21,364.0
1911-10-22,345.0
1911-10-23,382.0
1911-10-24,382.0
1911-10-25,382.0
1911-10-26,382.0
1911-10-27,382.0
1911-10-28,382.0
1911-10-29,382.0
1911-10-30,382.0
1911-10-31,345.0
1911-11-01,345.0
1911-11-02,364.0
1911-11-03,345.0
1911-11-04,345.0
1911-11-05,382.0
1911-11-06,364.0
1911-11-07,345.0
1911-11-08,364.0
1911-11-09,402.0
1911-11-10,382.0
1911-11-11,402.0
1911-11-12,294.0
1911-11-13,294.0
1911-11-14,345.0
1911-11-15,402.0
1911-11-16,444.0
1911-11-17,382.0
1911-11-18,364.0
1911-11-19,422.0
1911-11-20,422.0
1911-11-21,422.0
1911-11-22,422.0
1911-11-23,310.0
1911-11-24,310.0
1911-11-25,364.0
1911-11-26,402.0
1911-11-27,310.0
1911-11-28,294.0
1911-11-29,294.0
1911-11-30,262.0
1911-12-01,247.0
1911-12-02,294.0
1911-12-03,277.0
1911-12-04,310.0
1911-12-05,345.0
1911-12-06,364.0
1911-12-07,402.0
1911-12-08,364.0
1911-12-09,382.0
1911-12-10,277.0
1911-12-11,328.0
1911-12-12,364.0
1911-12-13,345.0
1911-12-14,277.0
1911-12-15,345.0
1911-12-16,310.0
1911-12-17,402.0
1911-12-18,402.0
1911-12-19,382.0
1911-12-20,382.0
1911-12-21,364.0
1911-12-22,345.0
1911-12-23,345.0
1911-12-24,328.0
1911-12-25,310.0
1911-12-26,310.0
1911-12-27,328.0
1911-12-28,364.0
1911-12-29,382.0
1911-12-30,382.0
1911-12-31,382.0
1912-01-01,300.0
1912-01-02,300.0
1912-01-03,300.0
1912-01-04,300.0
1912-01-05,300.0
1912-01-06,300.0
1912-01-07,300.0
1912-01-08,300.0
1912-01-09,300.0
1912-01-10,300.0
1912-01-11,300.0
1912-01-12,300.0
1912-01-13,300.0
1912-01-14,300.0
1912-01-15,300.0
1912-01-16,300.0
1912-01-17,300.0
1912-01-18,300.0
1912-01-19,300.0
1912-01-20,300.0
1912-01-21,300.0
1912-01-22,300.0
1912-01-23,300.0
1912-01-24,300.0
1912-01-25,300.0
1912-01-26,300.0
1912-01-27,300.0
1912-01-28,300.0
1912-01-29,300.0
1912-01-30,300.0
1912-01-31,300.0
1912-02-01,280.0
1912-02-02,280.0
1912-02-03,280.0
1912-02-04,280.0
1912-02-05,280.0
1912-02-06,280.0
1912-02-07,280.0
1912-02-08,280.0
1912-02-09,280.0
1912-02-10,280.0
1912-02-11,280.0
1912-02-12,280.0
1912-02-13,280.0
1912-02-14,280.0
1912-02-15,280.0
1912-02-16,280.0
1912-02-17,280.0
1912-02-18,280.0
1912-02-19,280.0
1912-02-20,280.0
1912-02-21,280.0
1912-02-22,280.0
1912-02-23,280.0
1912-02-24,280.0
1912-02-25,280.0
1912-02-26,280.0
1912-02-27,280.0
1912-02-28,280.0
1912-02-29,280.0
1912-03-01,330.0
1912-03-02,330.0
1912-03-03,330.0
1912-03-04,330.0
1912-03-05,330.0
1912-03-06,330.0
1912-03-07,330.0
1912-03-08,330.0
1912-03-09,330.0
1912-03-10,330.0
1912-03-11,330.0
1912-03-12,330.0
1912-03-13,330.0
1912-03-14,343.0
1912-03-15,343.0
1912-03-16,362.0
1912-03-17,383.0
1912-03-18,362.0
1912-03-19,362.0
1912-03-20,343.0
1912-03-21,362.0
1912-03-22,343.0
1912-03-23,343.0
1912-03-24,343.0
1912-03-25,324.0
1912-03-26,343.0
1912-03-27,474.0
1912-03-28,450.0
1912-03-29,404.0
1912-03-30,383.0
1912-03-31,404.0
1912-04-01,404.0
1912-04-02,383.0
1912-04-03,404.0
1912-04-04,474.0
1912-04-05,474.0
1912-04-06,450.0
1912-04-07,427.0
1912-04-08,450.0
1912-04-09,474.0
1912-04-10,524.0
1912-04-11,550.0
1912-04-12,498.0
1912-04-13,450.0
1912-04-14,404.0
1912-04-15,383.0
1912-04-16,404.0
1912-04-17,427.0
1912-04-18,404.0
1912-04-19,404.0
1912-04-20,383.0
1912-04-21,383.0
1912-04-22,383.0
1912-04-23,404.0
1912-04-24,362.0
1912-04-25,362.0
1912-04-26,404.0
1912-04-27,404.0
1912-04-28,383.0
1912-04-29,404.0
1912-04-30,427.0
1912-05-01,427.0
1912-05-02,450.0
1912-05-03,550.0
1912-05-04,498.0
1912-05-05,427.0
1912-05-06,404.0
1912-05-07,404.0
1912-05-08,474.0
1912-05-09,579.0
1912-05-10,641.0
1912-05-11,709.0
1912-05-12,816.0
1912-05-13,928.0
1912-05-14,928.0
1912-05-15,928.0
1912-05-16,1010.0
1912-05-17,1140.0
1912-05-18,1450.0
1912-05-19,1740.0
1912-05-20,1990.0
1912-05-21,2130.0
1912-05-22,2270.0
1912-05-23,2200.0
1912-05-24,1990.0
1912-05-25,2060.0
1912-05-26,2410.0
1912-05-27,2620.0
1912-05-28,2840.0
1912-05-29,3050.0
1912-05-30,3450.0
1912-05-31,4020.0
1912-06-01,3960.0
1912-06-02,4330.0
1912-06-03,3600.0
1912-06-04,5560.0
1912-06-05,5960.0
1912-06-06,6140.0
1912-06-07,6300.0
1912-06-08,6320.0
1912-06-09,6090.0
1912-06-10,5720.0
1912-06-11,5120.0
1912-06-12,4590.0
1912-06-13,4370.0
1912-06-14,4440.0
1912-06-15,4020.0
1912-06-16,3480.0
1912-06-17,2960.0
1912-06-18,2830.0
1912-06-19,2700.0
1912-06-20,2760.0
1912-06-21,3220.0
1912-06-22,3540.0
1912-06-23,3740.0
1912-06-24,3810.0
1912-06-25,3540.0
1912-06-26,3280.0
1912-06-27,3350.0
1912-06-28,3090.0
1912-06-29,2900.0
1912-06-30,2900.0
1912-07-01,2960.0
1912-07-02,2380.0
1912-07-03,1980.0
1912-07-04,1720.0
1912-07-05,1660.0
1912-07-06,1470.0
1912-07-07,1470.0
1912-07-08,1410.0
1912-07-09,1300.0
1912-07-10,1200.0
1912-07-11,1110.0
1912-07-12,1110.0
1912-07-13,1110.0
1912-07-14,1070.0
1912-07-15,1110.0
1912-07-16,1030.0
1912-07-17,802.0
1912-07-18,732.0
1912-07-19,698.0
1912-07-20,802.0
1912-07-21,732.0
1912-07-22,732.0
1912-07-23,664.0
1912-07-24,598.0
1912-07-25,536.0
1912-07-26,536.0
1912-07-27,536.0
1912-07-28,536.0
1912-07-29,536.0
1912-07-30,598.0
1912-07-31,567.0
1912-08-01,548.0
1912-08-02,598.0
1912-08-03,586.0
1912-08-04,586.0
1912-08-05,508.0
1912-08-06,438.0
1912-08-07,390.0
1912-08-08,371.0
1912-08-09,336.0
1912-08-10,289.0
1912-08-11,260.0
1912-08-12,254.0
1912-08-13,228.0
1912-08-14,228.0
1912-08-15,244.0
1912-08-16,296.0
1912-08-17,267.0
1912-08-18,304.0
1912-08-19,289.0
1912-08-20,260.0
1912-08-21,234.0
1912-08-22,228.0
1912-08-23,204.0
1912-08-24,198.0
1912-08-25,222.0
1912-08-26,213.0
1912-08-27,184.0
1912-08-28,192.0
1912-08-29,228.0
1912-08-30,254.0
1912-08-31,278.0
1912-09-01,244.0
1912-09-02,222.0
1912-09-03,222.0
1912-09-04,222.0
1912-09-05,254.0
1912-09-06,296.0
1912-09-07,267.0
1912-09-08,260.0
1912-09-09,244.0
1912-09-10,332.0
1912-09-11,464.0
1912-09-12,385.0
1912-09-13,354.0
1912-09-14,332.0
1912-09-15,354.0
1912-09-16,354.0
1912-09-17,332.0
1912-09-18,332.0
1912-09-19,312.0
1912-09-20,300.0
1912-09-21,264.0
1912-09-22,264.0
1912-09-23,257.0
1912-09-24,285.0
1912-09-25,300.0
1912-09-26,285.0
1912-09-27,292.0
1912-09-28,312.0
1912-09-29,312.0
1912-09-30,312.0
1912-10-01,312.0
1912-10-02,292.0
1912-10-03,292.0
1912-10-04,300.0
1912-10-05,423.0
1912-10-06,592.0
1912-10-07,502.0
1912-10-08,464.0
1912-10-09,464.0
1912-10-10,525.0
1912-10-11,497.0
1912-10-12,470.0
1912-10-13,470.0
1912-10-14,459.0
1912-10-15,444.0
1912-10-16,444.0
1912-10-17,444.0
1912-10-18,444.0
1912-10-19,459.0
1912-10-20,470.0
1912-10-21,525.0
1912-10-22,497.0
1912-10-23,497.0
1912-10-24,497.0
1912-10-25,497.0
1912-10-26,480.0
1912-10-27,586.0
1912-10-28,899.0
1912-10-29,638.0
1912-10-30,598.0
1912-10-31,664.0
1912-11-01,536.0
1912-11-02,497.0
1912-11-03,514.0
1912-11-04,573.0
1912-11-05,586.0
1912-11-06,525.0
1912-11-07,525.0
1912-11-08,555.0
1912-11-09,525.0
1912-11-10,519.0
1912-11-11,530.0
1912-11-12,508.0
1912-11-13,464.0
1912-11-14,475.0
1912-11-15,454.0
1912-11-16,464.0
1912-11-17,454.0
1912-11-18,404.0
1912-11-19,376.0
1912-11-20,404.0
1912-11-21,404.0
1912-11-22,367.0
1912-11-23,358.0
1912-11-24,367.0
1912-11-25,390.0
1912-11-26,367.0
1912-11-27,358.0
1912-11-28,367.0
1912-11-29,390.0
1912-11-30,414.0
1912-12-01,316.0
1912-12-02,328.0
1912-12-03,367.0
1912-12-04,376.0
1912-12-05,358.0
1912-12-06,304.0
1912-12-07,350.0
1912-12-08,222.0
1912-12-09,267.0
1912-12-10,345.0
1912-12-11,328.0
1912-12-12,371.0
1912-12-13,399.0
1912-12-14,409.0
1912-12-15,385.0
1912-12-16,399.0
1912-12-17,418.0
1912-12-18,399.0
1912-12-19,399.0
1912-12-20,371.0
1912-12-21,312.0
1912-12-22,247.0
1912-12-23,264.0
1912-12-24,282.0
1912-12-25,340.0
1912-12-26,385.0
1912-12-27,371.0
1912-12-28,340.0
1912-12-29,280.0
1912-12-30,280.0
1912-12-31,280.0
1913-01-01,280.0
1913-01-02,280.0
1913-01-03,280.0
1913-01-04,280.0
1913-01-05,280.0
1913-01-06,280.0
1913-01-07,280.0
1913-01-08,280.0
1913-01-09,280.0
1913-01-10,280.0
1913-01-11,280.0
1913-01-12,280.0
1913-01-13,280.0
1913-01-14,280.0
1913-01-15,280.0
1913-01-16,280.0
1913-01-17,280.0
1913-01-18,280.0
1913-01-19,280.0
1913-01-20,280.0
1913-01-21,280.0
1913-01-22,280.0
1913-01-23,280.0
1913-01-24,280.0
1913-01-25,280.0
1913-01-26,280.0
1913-01-27,280.0
1913-01-28,280.0
1913-01-29,280.0
1913-01-30,280.0
1913-01-31,280.0
1913-02-01,300.0
1913-02-02,300.0
1913-02-03,300.0
1913-02-04,300.0
1913-02-05,300.0
1913-02-06,300.0
1913-02-07,300.0
1913-02-08,300.0
1913-02-09,300.0
1913-02-10,300.0
1913-02-11,300.0
1913-02-12,300.0
1913-02-13,300.0
1913-02-14,300.0
1913-02-15,300.0
1913-02-16,300.0
1913-02-17,300.0
1913-02-18,300.0
1913-02-19,300.0
1913-02-20,300.0
1913-02-21,300.0
1913-02-22,300.0
1913-02-23,300.0
1913-02-24,300.0
1913-02-25,300.0
1913-02-26,300.0
1913-02-27,300.0
1913-02-28,300.0
1913-03-01,340.0
1913-03-02,340.0
1913-03-03,340.0
1913-03-04,340.0
1913-03-05,340.0
1913-03-06,340.0
1913-03-07,340.0
1913-03-08,340.0
1913-03-09,340.0
1913-03-10,340.0
1913-03-11,340.0
1913-03-12,340.0
1913-03-13,340.0
1913-03-14,340.0
1913-03-15,340.0
1913-03-16,340.0
1913-03-17,340.0
1913-03-18,340.0
1913-03-19,340.0
1913-03-20,340.0
1913-03-21,340.0
1913-03-22,340.0
1913-03-23,340.0
1913-03-24,428.0
1913-03-25,454.0
1913-03-26,428.0
1913-03-27,428.0
1913-03-28,508.0
1913-03-29,480.0
1913-03-30,802.0
1913-03-31,1300.0
1913-04-01,1110.0
1913-04-02,1070.0
1913-04-03,732.0
1913-04-04,536.0
1913-04-05,508.0
1913-04-06,508.0
1913-04-07,480.0
1913-04-08,454.0
1913-04-09,428.0
1913-04-10,428.0
1913-04-11,428.0
1913-04-12,454.0
1913-04-13,454.0
1913-04-14,567.0
1913-04-15,664.0
1913-04-16,732.0
1913-04-17,664.0
1913-04-18,767.0
1913-04-19,876.0
1913-04-20,767.0
1913-04-21,664.0
1913-04-22,631.0
1913-04-23,732.0
1913-04-24,698.0
1913-04-25,631.0
1913-04-26,598.0
1913-04-27,631.0
1913-04-28,767.0
1913-04-29,876.0
1913-04-30,991.0
1913-05-01,1030.0
1913-05-02,991.0
1913-05-03,839.0
1913-05-04,767.0
1913-05-05,839.0
1913-05-06,839.0
1913-05-07,952.0
1913-05-08,1200.0
1913-05-09,1300.0
1913-05-10,1410.0
1913-05-11,1530.0
1913-05-12,1920.0
1913-05-13,2050.0
1913-05-14,2050.0
1913-05-15,2050.0
1913-05-16,1920.0
1913-05-17,1660.0
1913-05-18,1790.0
1913-05-19,1920.0
1913-05-20,2050.0
1913-05-21,1920.0
1913-05-22,1790.0
1913-05-23,2310.0
1913-05-24,2830.0
1913-05-25,3480.0
1913-05-26,3880.0
1913-05-27,3610.0
1913-05-28,3610.0
1913-05-29,3740.0
1913-05-30,3350.0
1913-05-31,3090.0
1913-06-01,2830.0
1913-06-02,2830.0
1913-06-03,2570.0
1913-06-04,2440.0
1913-06-05,2050.0
1913-06-06,1920.0
1913-06-07,1790.0
1913-06-08,1530.0
1913-06-09,1530.0
1913-06-10,1530.0
1913-06-11,1410.0
1913-06-12,1200.0
1913-06-13,1110.0
1913-06-14,1030.0
1913-06-15,1030.0
1913-06-16,1070.0
1913-06-17,1030.0
1913-06-18,952.0
1913-06-19,914.0
1913-06-20,952.0
1913-06-21,876.0
1913-06-22,802.0
1913-06-23,767.0
1913-06-24,732.0
1913-06-25,839.0
1913-06-26,1300.0
1913-06-27,3090.0
1913-06-28,4160.0
1913-06-29,3090.0
1913-06-30,2310.0
1913-07-01,1790.0
1913-07-02,1660.0
1913-07-03,1530.0
1913-07-04,1300.0
1913-07-05,1110.0
1913-07-06,952.0
1913-07-07,876.0
1913-07-08,732.0
1913-07-09,732.0
1913-07-10,732.0
1913-07-11,598.0
1913-07-12,536.0
1913-07-13,428.0
1913-07-14,418.0
1913-07-15,404.0
1913-07-16,390.0
1913-07-17,380.0
1913-07-18,371.0
1913-07-19,428.0
1913-07-20,536.0
1913-07-21,1110.0
1913-07-22,876.0
1913-07-23,1070.0
1913-07-24,876.0
1913-07-25,732.0
1913-07-26,508.0
1913-07-27,428.0
1913-07-28,454.0
1913-07-29,390.0
1913-07-30,418.0
1913-07-31,336.0
1913-08-01,328.0
1913-08-02,289.0
1913-08-03,260.0
1913-08-04,267.0
1913-08-05,296.0
1913-08-06,289.0
1913-08-07,260.0
1913-08-08,234.0
1913-08-09,228.0
1913-08-10,267.0
1913-08-11,260.0
1913-08-12,254.0
1913-08-13,296.0
1913-08-14,289.0
1913-08-15,260.0
1913-08-16,244.0
1913-08-17,204.0
1913-08-18,198.0
1913-08-19,192.0
1913-08-20,198.0
1913-08-21,198.0
1913-08-22,184.0
1913-08-23,192.0
1913-08-24,304.0
1913-08-25,267.0
1913-08-26,244.0
1913-08-27,222.0
1913-08-28,222.0
1913-08-29,222.0
1913-08-30,267.0
1913-08-31,404.0
1913-09-01,328.0
1913-09-02,664.0
1913-09-03,732.0
1913-09-04,598.0
1913-09-05,480.0
1913-09-06,428.0
1913-09-07,508.0
1913-09-08,952.0
1913-09-09,1530.0
1913-09-10,1300.0
1913-09-11,1030.0
1913-09-12,914.0
1913-09-13,802.0
1913-09-14,767.0
1913-09-15,839.0
1913-09-16,698.0
1913-09-17,598.0
1913-09-18,536.0
1913-09-19,536.0
1913-09-20,480.0
1913-09-21,428.0
1913-09-22,428.0
1913-09-23,480.0
1913-09-24,536.0
1913-09-25,536.0
1913-09-26,536.0
1913-09-27,536.0
1913-09-28,536.0
1913-09-29,508.0
1913-09-30,480.0
1913-10-01,536.0
1913-10-02,508.0
1913-10-03,480.0
1913-10-04,480.0
1913-10-05,732.0
1913-10-06,664.0
1913-10-07,536.0
1913-10-08,536.0
1913-10-09,536.0
1913-10-10,536.0
1913-10-11,536.0
1913-10-12,480.0
1913-10-13,536.0
1913-10-14,598.0
1913-10-15,598.0
1913-10-16,598.0
1913-10-17,598.0
1913-10-18,567.0
1913-10-19,536.0
1913-10-20,536.0
1913-10-21,536.0
1913-10-22,508.0
1913-10-23,480.0
1913-10-24,480.0
1913-10-25,428.0
1913-10-26,454.0
1913-10-27,428.0
1913-10-28,480.0
1913-10-29,480.0
1913-10-30,418.0
1913-10-31,454.0
1913-11-01,428.0
1913-11-02,418.0
1913-11-03,598.0
1913-11-04,567.0
1913-11-05,536.0
1913-11-06,536.0
1913-11-07,480.0
1913-11-08,480.0
1913-11-09,480.0
1913-11-10,480.0
1913-11-11,428.0
1913-11-12,428.0
1913-11-13,598.0
1913-11-14,567.0
1913-11-15,480.0
1913-11-16,428.0
1913-11-17,454.0
1913-11-18,428.0
1913-11-19,428.0
1913-11-20,428.0
1913-11-21,428.0
1913-11-22,390.0
1913-11-23,336.0
1913-11-24,328.0
1913-11-25,336.0
1913-11-26,418.0
1913-11-27,404.0
1913-11-28,380.0
1913-11-29,328.0
1913-11-30,336.0
1913-12-01,320.0
1913-12-02,320.0
1913-12-03,320.0
1913-12-04,320.0
1913-12-05,320.0
1913-12-06,320.0
1913-12-07,320.0
1913-12-08,320.0
1913-12-09,320.0
1913-12-10,320.0
1913-12-11,345.0
1913-12-12,336.0
1913-12-13,336.0
1913-12-14,328.0
1913-12-15,336.0
1913-12-16,320.0
1913-12-17,320.0
1913-12-18,320.0
1913-12-19,316.0
1913-12-20,296.0
1913-12-21,296.0
1913-12-22,267.0
1913-12-23,289.0
1913-12-24,316.0
1913-12-25,316.0
1913-12-26,320.0
1913-12-27,320.0
1913-12-28,320.0
1913-12-29,336.0
1913-12-30,345.0
1913-12-31,371.0
1914-01-01,400.0
1914-01-02,400.0
1914-01-03,400.0
1914-01-04,400.0
1914-01-05,400.0
1914-01-06,454.0
1914-01-07,480.0
1914-01-08,454.0
1914-01-09,508.0
1914-01-10,480.0
1914-01-11,428.0
1914-01-12,428.0
1914-01-13,358.0
1914-01-14,370.0
1914-01-15,370.0
1914-01-16,370.0
1914-01-17,370.0
1914-01-18,370.0
1914-01-19,370.0
1914-01-20,370.0
1914-01-21,370.0
1914-01-22,370.0
1914-01-23,370.0
1914-01-24,370.0
1914-01-25,370.0
1914-01-26,370.0
1914-01-27,370.0
1914-01-28,370.0
1914-01-29,370.0
1914-01-30,370.0
1914-01-31,370.0
1914-02-01,380.0
1914-02-02,380.0
1914-02-03,380.0
1914-02-04,380.0
1914-02-05,380.0
1914-02-06,380.0
1914-02-07,380.0
1914-02-08,380.0
1914-02-09,380.0
1914-02-10,380.0
1914-02-11,380.0
1914-02-12,380.0
1914-02-13,380.0
1914-02-14,380.0
1914-02-15,380.0
1914-02-16,380.0
1914-02-17,380.0
1914-02-18,380.0
1914-02-19,380.0
1914-02-20,380.0
1914-02-21,380.0
1914-02-22,380.0
1914-02-23,380.0
1914-02-24,380.0
1914-02-25,380.0
1914-02-26,380.0
1914-02-27,380.0
1914-02-28,380.0
1914-03-01,440.0
1914-03-02,440.0
1914-03-03,440.0
1914-03-04,440.0
1914-03-05,440.0
1914-03-06,440.0
1914-03-07,440.0
1914-03-08,440.0
1914-03-09,440.0
1914-03-10,440.0
1914-03-11,440.0
1914-03-12,440.0
1914-03-13,440.0
1914-03-14,536.0
1914-03-15,536.0
1914-03-16,664.0
1914-03-17,664.0